Wind_Speed
10 10 9 10 10 10 10 9 8 7 6 8 10 12 11 10 8 7 7 7 7 7 6 6 7 7 7 8 8 8 8 9 10 10 10 10 10 11 11 10 9 9 9 8 7 6 6 5 4
11 11 11 11 12 12 11 10 9 8 8 9 11 12 12 11 10 8 8 8 7 7 7 7 8 8 9 9 10 10 10 11 11 12 12 11 12 12 12 11 11 10 10 9 9 8 7 7 6
12 12 13 13 14 14 12 10 9 10 11 12 13 13 13 12 10 10 9 9 8 8 8 8 8 9 9 10 11 12 12 12 13 13 13 13 13 13 13 13 12 12 11 11 10 10 9 8 8
14 14 15 15 16 15 14 12 10 10 13 15 16 16 14 12 10 10 10 9 9 9 9 9 10 10 11 12 12 13 14 14 14 15 15 15 15 15 15 14 14 13 13 13 12 11 11 10 10
16 15 16 17 18 16 14 13 12 12 15 17 18 17 15 13 10 10 10 9 9 9 9 10 11 12 13 13 14 15 15 16 16 16 17 17 17 17 16 16 15 15 14 14 14 13 13 12 11
17 16 16 18 18 16 15 13 12 13 16 18 18 16 14 12 10 10 11 10 10 10 10 11 12 13 14 14 15 16 17 17 18 18 18 18 18 18 18 18 17 16 16 15 15 15 14 14 13
17 17 17 19 19 17 15 13 13 16 20 20 19 17 15 13 11 9 11 11 11 11 12 12 13 13 14 15 15 16 17 18 19 19 19 19 19 20 19 19 19 19 18 17 16 16 15 15 14
18 18 19 20 19 19 18 15 16 19 22 21 19 18 17 16 12 11 12 12 12 12 13 13 14 15 16 16 17 17 18 19 20 20 20 20 21 21 21 21 20 20 20 20 19 18 17 17 16
19 19 21 21 21 20 18 16 17 19 21 21 20 19 18 16 14 12 12 13 13 13 14 15 15 16 17 17 18 18 19 19 20 21 21 21 22 22 23 23 22 23 22 22 21 20 20 19 18
21 22 23 23 22 19 17 17 18 20 21 21 20 19 17 15 13 12 12 13 13 13 14 14 15 16 17 18 19 19 19 19 20 21 22 22 22 23 23 24 24 24 24 23 22 22 21 20 19
23 25 25 24 22 20 18 18 19 21 21 19 18 17 17 15 14 13 13 14 14 14 14 14 16 17 18 18 18 18 19 20 21 22 22 22 23 23 24 25 26 25 24 24 24 23 23 22 20
25 26 25 24 21 20 19 19 20 21 20 20 19 18 17 16 16 15 14 14 14 14 15 15 16 18 19 20 19 19 18 19 20 22 22 23 23 23 25 26 25 25 24 24 25 24 23 23 21
26 26 25 24 21 20 20 21 22 22 20 19 19 18 17 15 15 15 15 13 14 15 16 16 17 18 19 20 20 21 20 20 21 21 22 24 24 24 24 24 23 24 24 24 24 24 24 23 22
25 25 24 22 21 20 21 22 22 21 21 19 17 16 16 17 16 15 14 15 16 16 17 18 19 19 19 20 19 20 22 21 21 22 22 22 22 24 24 23 24 24 25 24 24 24 23 22 22
24 23 23 22 20 19 19 19 20 19 19 19 18 16 15 16 16 15 15 16 16 18 18 19 20 20 20 20 20 20 21 21 20 21 21 21 23 23 24 24 24 24 24 25 24 24 23 23 22
22 21 20 19 18 18 18 18 18 17 17 17 17 16 16 15 15 16 16 16 17 18 19 19 20 20 20 20 20 20 20 20 20 21 22 22 23 23 23 23 23 24 25 25 24 24 23 23 23
20 19 18 16 15 16 16 16 17 17 17 17 16 16 17 17 15 15 15 17 18 19 19 18 19 20 20 21 20 20 20 20 20 21 22 23 23 23 23 23 25 25 24 24 24 24 23 23 23
18 18 16 14 14 14 15 15 16 16 16 16 15 16 17 17 17 17 18 20 20 19 18 18 19 20 21 21 22 21 21 21 21 21 22 23 24 24 24 24 24 23 23 23 24 23 23 23 24
17 17 15 13 13 14 14 14 15 16 17 15 15 17 17 17 18 19 20 21 20 18 18 19 19 20 22 22 23 23 23 22 22 22 22 23 23 23 23 23 23 23 24 24 24 24 24 24 24
18 16 14 12 13 13 13 14 16 17 17 18 18 18 18 18 19 21 21 21 20 19 19 20 20 21 22 22 23 23 23 23 24 23 23 23 23 23 23 23 24 23 23 23 23 24 24 24 24
18 16 15 13 13 12 14 16 16 17 19 19 19 19 18 19 20 21 21 21 21 21 20 21 22 22 22 22 22 22 23 23 24 24 24 24 24 24 24 23 23 22 22 22 23 24 24 25 25
16 16 16 16 16 16 16 17 17 18 20 20 20 19 20 19 20 21 22 21 20 21 21 22 22 23 23 23 23 23 23 24 24 24 24 24 24 24 24 24 23 23 22 23 23 23 24 25 25
15 16 17 18 19 19 19 20 20 21 22 22 21 20 21 20 21 21 20 19 19 20 21 21 22 23 23 23 23 24 24 24 24 24 24 24 24 24 23 23 23 22 22 22 22 23 24 24 24
15 17 19 19 19 20 19 21 21 22 22 23 23 22 21 20 20 20 19 18 19 20 20 21 22 22 23 24 24 24 24 24 23 23 24 24 24 24 24 23 23 22 21 21 22 23 24 24 24
15 16 19 21 22 22 20 22 23 23 22 22 23 23 22 20 20 20 19 19 20 20 21 21 22 23 23 24 24 24 24 23 23 23 24 24 23 23 24 24 22 21 20 20 21 22 24 24 24
15 17 18 19 21 22 23 25 24 24 24 23 22 20 20 20 19 20 19 20 20 21 21 22 23 24 24 24 24 23 23 24 23 23 23 23 22 22 22 23 22 21 21 22 22 23 23 24 24
15 16 18 20 19 20 22 25 25 23 22 21 20 21 21 19 18 18 20 20 20 21 21 22 23 23 24 24 24 24 24 24 24 23 24 23 23 23 22 22 22 22 22 23 23 23 24 24 24
16 16 18 20 20 20 21 22 22 20 20 21 21 21 21 19 18 18 19 19 20 21 22 23 24 24 25 25 25 24 24 24 24 24 24 24 23 22 22 21 22 22 22 22 23 23 23 23 23
17 17 18 19 20 20 21 21 20 20 21 21 22 22 21 19 19 19 19 20 21 22 22 23 24 24 25 25 25 24 24 25 25 25 24 24 23 22 22 21 21 21 21 21 21 21 21 22 22
17 18 19 20 20 21 23 23 21 21 21 22 21 21 21 21 21 21 20 21 22 23 23 24 24 25 25 25 25 24 24 24 24 24 23 23 22 22 21 20 20 20 20 19 19 20 20 20 21
Wind_Direction
220 211 207 203 203 206 211 218 229 233 248 276 295 307 309 312 313 302 296 301 297 297 297 297 295 288 284 282 278 277 275 275 273 273 275 280 283 283 283 283 283 282 282 284 283 283 285 286 289
217 207 201 197 199 205 214 223 229 238 257 275 289 299 300 300 299 291 286 288 290 293 294 293 291 286 282 280 277 274 274 274 273 271 271 274 276 277 278 277 278 278 279 281 279 279 281 282 285
216 205 196 193 198 210 216 225 236 244 260 276 285 292 291 289 285 282 280 283 285 286 289 289 287 283 280 278 276 273 272 273 272 269 269 269 270 272 272 272 272 273 275 277 277 278 278 279 281
212 202 197 194 199 211 218 225 234 249 265 275 281 285 285 280 276 279 278 280 283 283 284 285 283 280 278 276 274 272 271 271 271 269 268 268 267 268 269 267 267 269 271 271 272 274 276 277 278
209 202 197 195 203 214 218 227 237 254 265 276 283 285 279 275 271 274 276 278 282 282 282 282 281 279 278 277 273 271 271 269 269 268 268 268 268 267 267 266 266 265 267 268 267 268 271 273 275
205 202 197 198 207 217 224 233 247 259 271 278 282 284 279 277 269 273 276 277 280 282 282 283 281 281 282 281 278 275 274 272 270 268 268 267 268 267 264 264 265 265 265 267 267 266 267 269 270
203 199 197 202 210 218 225 232 248 265 274 278 282 280 281 276 272 268 273 274 277 280 283 284 283 283 283 283 281 279 276 274 271 269 268 268 270 268 265 264 264 264 263 264 264 263 263 264 266
200 198 198 204 211 221 226 233 249 264 272 275 278 280 280 280 273 269 270 272 276 280 284 284 284 285 285 284 283 282 279 276 273 271 270 269 269 270 267 265 265 263 263 262 262 260 261 262 263
196 196 198 205 215 223 230 239 250 261 270 273 275 280 280 281 276 271 271 277 279 283 287 287 286 287 287 284 282 281 280 279 277 274 271 269 269 269 267 266 266 264 263 262 260 259 259 260 261
193 194 199 209 218 224 231 241 250 260 267 271 274 279 284 285 275 268 273 281 284 285 291 291 287 288 287 285 283 280 279 280 278 276 272 269 270 269 265 264 264 262 260 259 259 258 257 257 258
193 195 201 208 220 227 234 244 252 259 266 268 270 275 281 283 273 271 274 281 284 287 291 292 290 289 289 290 287 283 280 281 280 277 274 270 272 272 267 266 264 260 259 258 258 258 256 254 256
193 199 206 211 220 227 236 245 252 260 266 270 277 277 278 274 271 269 270 275 279 284 288 290 289 291 293 293 288 282 280 279 279 277 274 272 273 271 271 269 268 261 259 258 256 256 255 254 255
194 202 210 213 219 230 238 245 253 259 265 270 275 279 276 274 267 269 271 276 282 287 289 291 291 291 293 294 290 284 280 280 281 276 274 275 275 271 269 267 268 265 261 261 258 256 254 252 253
199 206 212 216 222 230 239 247 253 260 265 270 271 274 274 274 273 274 277 283 287 287 289 289 290 293 294 292 291 286 282 280 283 279 277 278 278 273 267 267 266 264 260 260 259 256 253 252 253
204 209 214 217 221 231 241 248 254 261 267 268 268 271 276 276 275 279 281 283 285 286 288 291 291 293 294 294 295 294 288 285 282 280 280 278 277 279 271 269 265 263 260 256 256 254 254 253 252
206 211 216 219 222 233 245 253 259 266 267 269 270 272 275 274 280 283 280 280 284 284 286 289 292 295 294 294 296 297 293 292 286 281 281 279 277 279 277 273 268 265 265 259 255 254 254 254 255
209 211 215 221 227 236 246 255 264 267 269 272 273 275 278 280 285 282 285 284 286 284 285 289 292 293 293 295 293 295 293 293 289 283 283 282 279 279 278 275 270 269 265 258 255 255 253 255 257
210 211 215 222 228 238 247 258 270 268 270 271 273 276 276 281 284 284 285 288 288 285 287 290 290 291 293 294 293 293 292 291 289 286 285 285 283 279 276 274 271 267 261 259 257 256 255 256 258
207 209 214 221 229 241 253 267 268 273 278 274 279 280 279 282 282 284 286 284 284 285 288 291 291 291 291 292 292 290 289 287 287 286 286 285 283 278 277 275 271 266 262 260 258 256 257 258 259
206 209 214 221 231 243 259 269 269 273 280 282 285 281 280 284 283 283 285 285 286 286 289 291 292 292 292 291 290 289 288 287 287 288 289 289 286 282 280 277 271 265 262 260 258 255 258 259 260
211 210 211 223 236 251 264 265 269 276 280 281 284 284 282 283 281 283 285 286 286 289 289 290 292 292 292 292 292 291 289 288 288 288 288 287 287 283 278 276 273 268 265 263 259 256 258 260 260
211 209 214 225 236 245 252 258 265 274 280 283 282 285 285 285 283 281 284 284 286 289 288 287 289 289 290 292 292 292 291 290 289 288 286 283 281 280 278 276 272 271 269 265 261 258 258 258 259
217 216 219 227 235 244 250 256 261 269 278 284 284 285 287 284 284 282 283 285 287 290 288 287 288 290 291 291 290 290 291 290 289 287 285 282 280 279 279 276 274 272 271 267 262 260 260 259 258
221 223 226 233 240 245 250 258 263 271 279 283 284 286 286 283 284 284 285 286 287 291 292 291 291 291 292 292 291 291 292 290 289 287 288 285 282 279 278 277 276 276 274 268 264 263 262 262 260
227 232 234 236 239 244 251 259 267 274 279 282 284 283 281 285 287 288 288 289 291 292 294 294 293 293 293 293 291 291 292 292 292 292 290 287 282 278 278 276 274 275 273 270 268 266 265 264 263
230 237 241 242 245 247 253 261 269 276 278 281 285 283 278 280 288 287 287 290 290 294 296 297 295 293 292 292 290 290 291 292 293 293 292 289 285 281 280 275 274 275 274 271 270 268 267 265 264
233 240 246 249 250 252 254 260 267 275 281 281 285 290 289 287 288 288 287 288 290 295 297 296 296 294 292 291 291 290 289 291 291 290 290 288 285 283 280 278 276 275 274 272 270 268 267 268 266
237 243 247 250 256 258 259 263 265 276 282 281 286 293 294 289 287 286 286 287 290 293 295 296 296 295 293 293 292 290 289 289 290 289 289 289 284 281 281 280 277 275 273 272 272 271 269 268 266
241 245 251 255 258 263 265 269 274 278 281 282 285 290 293 290 285 288 287 287 289 293 296 296 297 296 294 292 290 289 288 287 288 288 288 287 285 285 283 280 278 277 276 274 274 271 270 269 268
245 249 253 254 257 261 266 271 275 280 281 283 286 293 296 295 293 291 290 290 292 294 295 297 297 295 294 292 290 288 288 287 287 287 286 286 285 285 284 283 280 279 277 274 275 274 271 271 269
Height
5910 5911 5913 5914 5915 5915 5915 5915 5915 5916 5916 5916 5917 5917 5918 5919 5920 5921 5918 5917 5917 5916 5915 5915 5915 5915 5915 5915 5914 5914 5914 5914 5913 5913 5913 5913 5912 5912 5911 5911 5910 5910 5909 5908 5907 5907 5906 5905 5904
5907 5909 5912 5913 5913 5912 5913 5913 5914 5915 5915 5915 5916 5917 5917 5917 5918 5917 5916 5915 5915 5915 5914 5914 5914 5913 5913 5913 5913 5913 5913 5912 5912 5912 5912 5912 5911 5911 5910 5910 5909 5908 5908 5907 5907 5906 5905 5904 5903
5905 5907 5910 5910 5910 5911 5911 5911 5912 5913 5913 5914 5916 5917 5916 5916 5916 5915 5914 5914 5913 5913 5913 5912 5912 5912 5912 5911 5911 5911 5911 5911 5911 5910 5910 5910 5910 5909 5909 5908 5908 5907 5907 5906 5905 5905 5904 5903 5902
5903 5905 5907 5908 5908 5909 5910 5910 5910 5912 5912 5913 5915 5915 5915 5915 5914 5913 5912 5912 5911 5911 5911 5910 5910 5910 5909 5909 5909 5909 5909 5909 5909 5908 5908 5908 5908 5907 5907 5906 5906 5905 5905 5904 5904 5903 5902 5901 5901
5900 5903 5905 5905 5905 5907 5907 5908 5908 5909 5910 5911 5912 5913 5912 5913 5912 5911 5910 5910 5909 5909 5908 5908 5908 5907 5907 5907 5907 5907 5907 5906 5906 5906 5905 5905 5905 5905 5905 5904 5904 5903 5903 5902 5902 5901 5900 5900 5899
5898 5900 5902 5902 5902 5904 5905 5906 5906 5907 5908 5909 5910 5911 5910 5911 5910 5910 5909 5908 5907 5907 5906 5906 5905 5905 5905 5904 5904 5904 5904 5904 5903 5903 5902 5903 5902 5902 5902 5902 5902 5901 5901 5900 5900 5899 5898 5898 5897
5896 5898 5899 5900 5900 5901 5903 5904 5905 5905 5905 5907 5908 5908 5908 5908 5908 5908 5907 5906 5905 5904 5904 5903 5903 5902 5902 5902 5901 5901 5901 5900 5900 5900 5899 5899 5899 5899 5899 5899 5899 5898 5898 5897 5897 5896 5896 5895 5894
5892 5896 5897 5898 5898 5898 5899 5901 5902 5903 5903 5904 5905 5906 5906 5906 5906 5905 5904 5903 5903 5902 5902 5901 5901 5900 5899 5899 5898 5898 5897 5897 5896 5896 5896 5896 5896 5896 5895 5895 5895 5895 5895 5894 5894 5893 5893 5892 5891
5890 5894 5894 5895 5895 5896 5897 5899 5900 5900 5901 5901 5902 5903 5903 5902 5902 5902 5901 5901 5900 5900 5899 5899 5898 5897 5896 5895 5894 5893 5893 5893 5892 5892 5892 5891 5891 5891 5891 5891 5891 5891 5890 5890 5890 5890 5889 5889 5888
5887 5890 5891 5892 5892 5894 5895 5897 5898 5898 5898 5899 5899 5900 5899 5898 5899 5899 5898 5898 5897 5897 5896 5895 5895 5894 5893 5891 5890 5889 5889 5889 5888 5887 5887 5886 5886 5886 5886 5886 5886 5886 5885 5885 5885 5885 5885 5885 5885
5883 5886 5887 5888 5889 5891 5893 5895 5896 5895 5896 5896 5897 5897 5896 5896 5896 5896 5895 5895 5895 5894 5893 5892 5891 5890 5889 5888 5886 5885 5885 5884 5883 5882 5882 5881 5881 5881 5881 5881 5880 5880 5880 5880 5880 5881 5881 5881 5880
5880 5882 5884 5885 5887 5889 5890 5891 5892 5893 5894 5894 5895 5895 5894 5893 5892 5892 5892 5891 5891 5891 5890 5889 5888 5886 5885 5883 5882 5880 5879 5879 5878 5877 5877 5876 5876 5876 5875 5875 5875 5875 5875 5875 5875 5875 5876 5876 5876
5877 5879 5882 5883 5885 5886 5887 5888 5889 5890 5892 5892 5892 5891 5891 5890 5890 5889 5889 5888 5888 5888 5887 5886 5884 5883 5881 5879 5877 5875 5874 5873 5872 5871 5871 5870 5870 5870 5869 5869 5869 5869 5869 5869 5870 5870 5870 5871 5871
5874 5876 5879 5881 5882 5883 5884 5886 5887 5887 5888 5888 5889 5888 5887 5886 5886 5886 5885 5885 5884 5884 5883 5882 5881 5879 5877 5875 5873 5871 5869 5868 5867 5866 5865 5865 5864 5864 5864 5863 5863 5863 5863 5864 5865 5865 5865 5866 5866
5871 5874 5876 5878 5880 5881 5882 5883 5884 5884 5884 5885 5885 5884 5884 5883 5882 5881 5881 5881 5880 5880 5879 5877 5876 5874 5872 5870 5868 5866 5864 5863 5862 5861 5860 5859 5859 5859 5858 5857 5858 5858 5858 5858 5859 5859 5860 5861 5861
5869 5872 5874 5877 5878 5879 5881 5880 5881 5881 5881 5881 5881 5881 5881 5879 5879 5878 5877 5876 5876 5875 5874 5873 5871 5870 5868 5866 5864 5862 5860 5859 5857 5856 5855 5854 5854 5853 5852 5851 5852 5852 5852 5852 5853 5854 5855 5855 5855
5867 5870 5872 5874 5875 5876 5877 5877 5878 5878 5878 5877 5877 5877 5877 5876 5875 5875 5873 5872 5871 5871 5869 5868 5867 5865 5863 5861 5860 5858 5856 5854 5852 5851 5849 5849 5848 5848 5847 5846 5846 5846 5846 5847 5847 5848 5848 5849 5850
5866 5867 5869 5870 5872 5873 5874 5874 5874 5874 5874 5873 5873 5873 5873 5873 5872 5871 5869 5869 5867 5866 5865 5864 5863 5861 5859 5857 5855 5853 5851 5849 5847 5846 5844 5843 5842 5842 5841 5841 5840 5840 5840 5841 5841 5842 5842 5843 5844
5863 5864 5866 5867 5868 5869 5870 5871 5871 5871 5871 5869 5870 5869 5869 5869 5868 5867 5866 5865 5863 5862 5861 5860 5858 5856 5854 5852 5850 5848 5846 5844 5843 5841 5839 5838 5837 5836 5835 5835 5834 5834 5834 5835 5835 5836 5837 5837 5838
5859 5861 5862 5864 5865 5865 5866 5868 5868 5867 5867 5866 5866 5865 5865 5865 5864 5863 5862 5861 5860 5859 5857 5855 5854 5852 5850 5848 5845 5843 5841 5840 5838 5836 5834 5832 5831 5830 5829 5828 5828 5828 5828 5828 5829 5830 5831 5831 5831
5857 5859 5860 5861 5862 5863 5864 5864 5864 5864 5864 5863 5862 5862 5861 5861 5860 5860 5858 5857 5856 5854 5853 5851 5849 5847 5845 5842 5840 5838 5836 5834 5833 5831 5829 5827 5825 5824 5823 5823 5822 5821 5821 5822 5822 5823 5823 5824 5824
5854 5856 5857 5858 5858 5859 5861 5861 5861 5860 5859 5858 5858 5858 5857 5856 5856 5855 5854 5852 5851 5850 5848 5846 5844 5842 5840 5838 5835 5833 5831 5829 5827 5825 5823 5822 5820 5819 5818 5817 5816 5815 5815 5815 5815 5815 5816 5817 5817
5851 5853 5854 5855 5855 5856 5857 5857 5858 5857 5856 5855 5854 5853 5852 5852 5851 5850 5849 5848 5847 5845 5843 5841 5839 5836 5834 5832 5830 5828 5825 5823 5821 5819 5817 5816 5814 5813 5811 5810 5809 5808 5808 5808 5808 5808 5809 5809 5810
5848 5849 5850 5851 5852 5853 5854 5853 5853 5852 5851 5851 5850 5849 5848 5847 5847 5846 5845 5843 5842 5840 5838 5835 5833 5831 5828 5826 5824 5822 5820 5818 5815 5813 5811 5809 5808 5806 5805 5804 5803 5802 5801 5801 5801 5801 5802 5802 5803
5845 5847 5848 5848 5848 5849 5850 5848 5848 5847 5847 5846 5845 5844 5843 5842 5841 5841 5840 5838 5836 5834 5832 5830 5827 5825 5822 5820 5818 5816 5814 5811 5809 5807 5805 5803 5801 5800 5799 5797 5796 5795 5795 5795 5794 5795 5795 5795 5796
5842 5843 5845 5845 5845 5846 5845 5844 5844 5843 5842 5841 5839 5838 5836 5836 5835 5835 5834 5832 5831 5829 5826 5824 5821 5819 5817 5814 5812 5810 5808 5805 5803 5801 5799 5797 5795 5793 5792 5791 5790 5789 5789 5788 5788 5788 5788 5788 5788
5838 5839 5840 5841 5840 5841 5840 5839 5839 5838 5837 5835 5835 5834 5832 5831 5830 5829 5828 5826 5825 5823 5820 5818 5815 5813 5811 5808 5806 5803 5801 5799 5797 5795 5793 5790 5788 5787 5786 5784 5783 5783 5782 5782 5781 5781 5781 5781 5781
5835 5836 5836 5836 5836 5836 5835 5834 5835 5834 5833 5832 5830 5830 5828 5827 5825 5823 5821 5820 5819 5817 5814 5812 5809 5807 5804 5802 5799 5797 5794 5793 5791 5789 5787 5784 5782 5780 5779 5778 5777 5776 5775 5775 5774 5774 5773 5773 5773
5832 5832 5832 5832 5831 5831 5830 5832 5831 5830 5829 5827 5826 5825 5824 5821 5820 5819 5816 5815 5813 5810 5808 5806 5803 5800 5798 5795 5792 5790 5788 5786 5784 5782 5780 5778 5776 5774 5773 5771 5770 5769 5768 5768 5767 5767 5766 5766 5766
5827 5828 5828 5828 5827 5826 5826 5828 5826 5825 5824 5823 5821 5820 5819 5817 5815 5813 5811 5809 5807 5805 5802 5800 5796 5794 5791 5788 5785 5783 5781 5779 5777 5775 5773 5771 5770 5768 5766 5765 5764 5763 5762 5761 5761 5760 5760 5759 5759